This is the latest recevied weather packets stored in our database for station/object KL1SF-7. If no packets are shown the sender has not sent any weather packets the latest 10 day(s).
| Time | Temp. | Humidity | Pressure | Rain* | Wind** | Luminosity | Snow |
|---|---|---|---|---|---|---|---|
| 1777676616 | 17.22° C | 13% | 1016.1 hPa | 0 mm | - | - | - |
| 1777676022 | 17.22° C | 14% | 1016.6 hPa | 0 mm | - | - | - |
| 1777675411 | 16.67° C | 13% | 1016.6 hPa | 0 mm | - | - | - |
| 1777674824 | 17.22° C | 13% | 1016.3 hPa | 0 mm | - | - | - |
| 1777674206 | 17.22° C | 13% | 1016.8 hPa | 0 mm | - | - | - |
| 1777673614 | 16.67° C | 13% | 1016.8 hPa | 0 mm | - | - | - |
| 1777672412 | 16.67° C | 14% | 1017.2 hPa | 0 mm | - | - | - |
| 1777671822 | 16.67° C | 14% | 1017.2 hPa | 0 mm | - | - | - |
| 1777671214 | 17.22° C | 14% | 1017.2 hPa | 0 mm | - | - | - |
| 1777670615 | 16.67° C | 14% | 1017.3 hPa | 0 mm | - | - | - |
| 1777670005 | 16.67° C | 14% | 1017.3 hPa | 0 mm | - | - | - |
| 1777669418 | 16.67° C | 14% | 1017.1 hPa | 0 mm | - | - | - |
| 1777668822 | 17.22° C | 14% | 1017.1 hPa | 0 mm | - | - | - |
| 1777668212 | 17.22° C | 14% | 1017.1 hPa | 0 mm | - | - | - |
| 1777667632 | 16.67° C | 14% | 1017.2 hPa | 0 mm | - | - | - |
| 1777667013 | 16.67° C | 14% | 1017.2 hPa | 0 mm | - | - | - |
| 1777666406 | 16.67° C | 14% | 1017.2 hPa | 0 mm | - | - | - |
| 1777665819 | 16.67° C | 15% | 1017.7 hPa | 0 mm | - | - | - |
| 1777665205 | 16.11° C | 15% | 1017.8 hPa | 0 mm | - | - | - |
| 1777664615 | 16.11° C | 15% | 1017.8 hPa | 0 mm | - | - | - |
| 1777664027 | 15.56° C | 15% | 1017.5 hPa | 0 mm | - | - | - |
| 1777663408 | 15° C | 16% | 1017.9 hPa | 0 mm | - | - | - |
| 1777662818 | 15° C | 17% | 1017.9 hPa | 0 mm | - | - | - |
| 1777662229 | 15° C | 16% | 1018.3 hPa | 0 mm | - | - | - |
| 1777661615 | 15° C | 17% | 1017.9 hPa | 0 mm | - | - | - |
* Rain since midnight (hover to see other rain measurements)
** Current wind speed in m/s (hover to see current wind gust speed)